TimeCDT,TemperatureF,Dew PointF,Humidity,Sea Level PressureIn,VisibilityMPH,Wind Direction,Wind SpeedMPH,Gust SpeedMPH,PrecipitationIn,Events,Conditions,WindDirDegrees,DateUTC
12:53 AM,64.0,59.0,84,30.02,10.0,SE,3.5,-,N/A,,Clear,130,2013-05-09 05:53:00
1:53 AM,64.0,60.1,87,30.02,10.0,SE,3.5,-,N/A,,Clear,140,2013-05-09 06:53:00
2:53 AM,63.0,62.1,97,30.01,10.0,SE,5.8,-,N/A,,Clear,140,2013-05-09 07:53:00
3:53 AM,64.0,62.1,93,30.02,9.0,Calm,Calm,-,N/A,,Clear,0,2013-05-09 08:53:00
4:53 AM,63.0,62.1,97,30.04,8.0,Calm,Calm,-,N/A,,Partly Cloudy,0,2013-05-09 09:53:00
5:53 AM,60.1,60.1,100,30.03,6.0,SE,4.6,-,N/A,,Clear,130,2013-05-09 10:53:00
6:53 AM,62.1,62.1,100,30.05,4.0,SE,4.6,-,N/A,,Clear,140,2013-05-09 11:53:00
7:53 AM,64.0,64.0,100,30.06,3.0,SSE,4.6,-,N/A,,Clear,150,2013-05-09 12:53:00
8:03 AM,64.4,64.4,100,30.05,4.0,SSE,4.6,-,N/A,,Scattered Clouds,150,2013-05-09 13:03:00
8:13 AM,64.4,64.4,100,30.05,4.0,Calm,Calm,-,N/A,,Mostly Cloudy,0,2013-05-09 13:13:00
8:53 AM,66.9,66.0,97,30.07,6.0,South,4.6,-,N/A,,Mostly Cloudy,180,2013-05-09 13:53:00
9:13 AM,69.8,66.2,88,30.06,9.0,SSE,6.9,-,N/A,,Scattered Clouds,150,2013-05-09 14:13:00
9:53 AM,73.9,66.9,79,30.07,10.0,SSE,6.9,-,N/A,,Clear,160,2013-05-09 14:53:00
10:26 AM,75.2,66.2,73,30.06,10.0,South,5.8,-,N/A,,Mostly Cloudy,180,2013-05-09 15:26:00
10:53 AM,77.0,66.0,69,30.08,10.0,SSW,8.1,-,N/A,,Mostly Cloudy,200,2013-05-09 15:53:00
11:00 AM,78.8,66.2,65,30.07,10.0,SSW,8.1,-,N/A,,Scattered Clouds,200,2013-05-09 16:00:00
12:53 PM,79.0,66.9,66,30.06,10.0,SE,9.2,-,N/A,,Mostly Cloudy,130,2013-05-09 17:53:00
1:53 PM,78.1,66.9,68,30.04,10.0,SSE,8.1,-,N/A,,Overcast,150,2013-05-09 18:53:00
3:53 PM,75.9,69.1,79,30.01,10.0,South,6.9,-,0.00,,Overcast,190,2013-05-09 20:53:00
4:33 PM,73.4,68.0,83,29.99,10.0,SSE,9.2,-,0.00,,Overcast,160,2013-05-09 21:33:00
4:53 PM,73.9,69.1,85,30.00,10.0,SSE,8.1,-,0.00,,Overcast,150,2013-05-09 21:53:00
5:29 PM,73.4,68.0,83,29.99,10.0,SSE,5.8,-,N/A,,Overcast,150,2013-05-09 22:29:00
5:53 PM,73.9,69.1,85,29.99,10.0,SE,9.2,-,N/A,,Overcast,140,2013-05-09 22:53:00
6:53 PM,73.0,69.1,87,29.98,10.0,SSE,4.6,-,N/A,,Overcast,150,2013-05-09 23:53:00
7:53 PM,72.0,69.1,91,29.98,10.0,SE,4.6,-,N/A,,Overcast,140,2013-05-10 00:53:00
8:53 PM,72.0,69.1,91,29.97,10.0,ESE,5.8,-,0.00,Rain,Light Rain,120,2013-05-10 01:53:00
9:00 PM,71.6,69.8,94,29.96,10.0,ESE,5.8,-,0.00,Rain-Thunderstorm,Light Rain,110,2013-05-10 02:00:00
9:15 PM,71.6,69.8,94,29.95,10.0,SE,5.8,-,0.00,Rain,Light Rain,130,2013-05-10 02:15:00
9:34 PM,71.6,69.8,94,29.95,10.0,East,5.8,-,0.01,Rain-Thunderstorm,Light Rain,90,2013-05-10 02:34:00
9:53 PM,72.0,69.1,91,29.97,10.0,ESE,5.8,-,0.01,Rain-Thunderstorm,Light Rain,110,2013-05-10 02:53:00
10:02 PM,71.6,69.8,94,29.96,8.0,East,4.6,-,0.03,Rain,Heavy Rain,100,2013-05-10 03:02:00
10:39 PM,71.6,69.8,94,29.97,7.0,SE,8.1,-,0.10,Rain-Thunderstorm,Light Thunderstorms and Rain,130,2013-05-10 03:39:00
10:53 PM,71.1,69.1,93,29.97,8.0,East,5.8,-,0.11,Rain-Thunderstorm,Light Rain,100,2013-05-10 03:53:00
11:35 PM,71.6,69.8,94,29.98,5.0,Calm,Calm,-,0.05,Rain-Thunderstorm,Thunderstorms and Rain,0,2013-05-10 04:35:00
11:43 PM,69.8,69.8,100,29.99,1.8,WNW,3.5,-,0.18,Rain-Thunderstorm,Heavy Thunderstorms and Rain,300,2013-05-10 04:43:00
11:51 PM,69.8,69.8,100,29.98,1.0,NNW,6.9,-,0.28,Rain-Thunderstorm,Heavy Thunderstorms and Rain,330,2013-05-10 04:51:00
11:59 PM,69.8,69.8,100,29.97,3.0,North,6.9,-,0.01,Rain-Thunderstorm,Thunderstorms and Rain,10,2013-05-10 04:59:00